Flag for Croatia Weather past 2 weeks in Osijek, Croatia

Now
70 °F

Clear.


Feels Like: 70 °F
Forecast: 62 / 86 °F
Wind: No wind

Location: Osijek / Cepin

Current Time: Aug 1, 2015 at 10:19:36 PM

Latest Report: Aug 1, 2015 at 10:00 PM


Visibility: 10 mi

Pressure: 30.01 "Hg

Humidity: 69%

Dew point: 59 °F

Location of OsijekLocation

Historic Weather in Osijek — Graph

°F

Osijek temperature yesterday

Maximum temperature yesterday: 73 °F (at 5:00 PM)
Minimum temperature yesterday: 61 °F (at 1:00 PM)
Average temperature yesterday: 67 °F

Past Weeks' High & Low Weather Summary

 TemperatureHumidityPressure
High99 °F (Jul 18, 3:00 PM)100% (Jul 28, 6:00 AM)30.09 "Hg (Jul 28, 6:00 AM)
Low52 °F (Aug 1, 6:00 AM)23% (Jul 23, 2:30 PM)29.68 "Hg (Jul 25, 5:30 PM)
Average80 °F61%29.90 "Hg
* Reported Jul 17 9:00 PM — Aug 1 9:00 PM, Osijek, Weather by CustomWeather, © 2015

Note: Actual official high and low records may vary slightly from our data, if they occured in-between our weather recording intervals... More about our weather records

Advertising

Osijek weather history for previous 24 hours

 ConditionsComfort  
Time TempWeatherWind HumidityBarometerVisibility
9:00 PM
Sat, Aug 1
73 °FSunny.7 mph57%30.01 "Hg10 mi
8:30 PM75 °FSunny.6 mph54%29.98 "Hg10 mi
8:00 PM77 °FSunny.7 mph47%29.98 "Hg10 mi
7:30 PM79 °FSunny.7 mph42%29.98 "Hg10 mi
7:00 PM81 °FSunny.8 mph39%29.98 "Hg10 mi
6:30 PM81 °FSunny.9 mph37%29.98 "Hg10 mi
6:00 PM82 °FSunny.10 mph35%29.98 "Hg10 mi
5:30 PM82 °FSunny.8 mph37%30.01 "Hg10 mi
5:00 PM82 °FPassing clouds.9 mph37%30.01 "HgN/A
4:30 PM82 °FSunny.9 mph37%30.01 "Hg10 mi
4:00 PM82 °FPassing clouds.7 mph37%30.01 "HgN/A
3:30 PM82 °FPassing clouds.8 mph37%30.01 "HgN/A
3:00 PM81 °FPassing clouds.10 mph37%30.04 "HgN/A
2:30 PM81 °FPassing clouds.7 mph37%30.04 "HgN/A
2:00 PM81 °FPassing clouds.9 mph37%30.04 "HgN/A
1:30 PM81 °FPassing clouds.8 mph37%30.07 "HgN/A
1:00 PM79 °FPassing clouds.9 mph39%30.07 "HgN/A
12:30 PM79 °FPassing clouds.10 mph48%30.07 "HgN/A
12:00 PM77 °FSunny.12 mph51%30.07 "Hg10 mi
11:30 AM75 °FSunny.9 mph54%30.07 "Hg10 mi
11:00 AM75 °FPassing clouds.7 mph54%30.07 "HgN/A
10:30 AM73 °FSunny.6 mph65%30.09 "Hg10 mi
10:00 AM72 °FPassing clouds.7 mph69%30.09 "HgN/A
9:30 AM68 °FPassing clouds.5 mph83%30.07 "HgN/A
9:00 AM66 °FPassing clouds.5 mph88%30.07 "HgN/A
8:30 AM63 °FSunny.2 mph88%30.07 "Hg10 mi
8:00 AM61 °FSunny.1 mph88%30.07 "Hg10 mi
7:30 AM57 °FClear.No wind94%30.07 "Hg4 mi
7:00 AM55 °FClear.No wind94%30.07 "Hg4 mi
6:30 AM54 °FClear.No wind94%30.07 "Hg4 mi
6:00 AM52 °FFog.5 mph94%30.04 "Hg2 mi
10:00 PM
Fri, Jul 31
63 °FClear.7 mph88%30.07 "Hg10 mi
Weather by CustomWeather, © 2015

See weather overviewHow to use our weather pages